Skip Page Navigation
NASA JPL Caltech
NASA Logo - Jet Propulsion Laboratory + View the NASA Portal
+ Center for Near-Earth Object Studies
JPL Home Earth Solar System Stars & Galaxies Technology
JPL Solar System Dynamics
BODIES ORBITS EPHEMERIDES TOOLS PHYSICAL DATA DISCOVERY FAQ SITE MAP
JPL Small-Body Database Browser
Search: [ help ]  
43449 (2000 YC83)
Classification: Main-belt Asteroid          SPK-ID: 2043449
Ephemeris | Orbit Diagram | Orbital Elements | Mission Design | Physical Parameters | Discovery Circumstances | Close-Approach Data ]

[ show orbit diagram ]
Orbital Elements at Epoch 2459200.5 (2020-Dec-17.0) TDB
Reference: JPL 26 (heliocentric ecliptic J2000)
 Element Value Uncertainty (1-sigma)   Units 
e .1490282799458594 3.0293e-08  
a 2.381136174574073 8.0511e-09 au
q 2.026279546160435 7.3658e-08 au
i 2.664521491526804 3.2491e-06 deg
node 109.2825475117133 7.4528e-05 deg
peri 110.5486706924261 7.5532e-05 deg
M 41.06636875313931 1.1773e-05 deg
tp 2459047.405856267070
(2020-Jul-16.90585627)
4.3886e-05 TDB
period 1342.068788091754
3.67
6.8067e-06
1.864e-08
d
yr
n .2682425842805515 1.3605e-09 deg/d
Q 2.73599280298771 9.251e-09 au
  Orbit Determination Parameters
   # obs. used (total)      1229  
   data-arc span      9636 days (26.38 yr)  
   first obs. used      1994-01-10  
   last obs. used      2020-05-29  
   planetary ephem.      DE441  
   SB-pert. ephem.      SB441-N16  
   condition code      0  
   norm. resid. RMS      .50572  
   source      ORB  
   producer      Otto Matic  
   solution date      2021-Apr-13 09:20:07  

Additional Information
 Earth MOID = 1.019 au 
 Jupiter MOID = 2.23616 au 
 T_jup = 3.522 
[ show covariance matrix ]

Ephemeris | Orbit Diagram | Orbital Elements | Mission Design | Physical Parameters | Discovery Circumstances | Close-Approach Data ]

Physical Parameter Table
Parameter Symbol Value Units Sigma Reference Notes
absolute magnitude H 15.67   n/a E2021B10  

43449 (2000 YC83)          Discovered 2000-Dec-30 by LINEAR at Socorro
Reference: 20020624/Numbers.arcLast Updated: 2004-04-19

[ show close-approach data ]
Alternate Designations
 2000 YC83 = 1998 FJ59 = 1999 RX177 
Ephemeris | Orbit Diagram | Orbital Elements | Mission Design | Physical Parameters | Discovery Circumstances | Close-Approach Data ]
ABOUT SSD CREDITS/AWARDS PRIVACY/COPYRIGHT GLOSSARY LINKS
FirstGov 2021-Jun-13 18:50 UT
(server date/time)  
NASA Home Page
Site Manager:   Ryan S. Park
Webmaster  Alan B. Chamberlin